TimeEST,TemperatureF,Dew PointF,Humidity,Sea Level PressureIn,VisibilityMPH,Wind Direction,Wind SpeedMPH,Gust SpeedMPH,PrecipitationIn,Events,Conditions,WindDirDegrees,DateUTC
12:15 AM,-11.2,-9999,N/A,-9999,10.0,SSE,5.8,-,N/A,,Clear,160,2013-01-08 05:15:00
12:35 AM,-7.6,-9999,N/A,30.15,10.0,South,4.6,-,N/A,,Clear,180,2013-01-08 05:35:00
12:55 AM,-7.6,-9999,N/A,-9999,10.0,ESE,3.5,-,N/A,,Clear,120,2013-01-08 05:55:00
1:15 AM,-2.2,-25.6,32,30.14,10.0,SSE,5.8,-,N/A,,Clear,150,2013-01-08 06:15:00
1:35 AM,-2.2,-20.2,42,30.12,10.0,SSE,5.8,-,N/A,,Clear,150,2013-01-08 06:35:00
1:55 AM,-2.2,-18.4,46,30.11,10.0,Calm,Calm,-,N/A,,Clear,0,2013-01-08 06:55:00
2:15 AM,-2.2,-16.6,50,30.10,10.0,SE,4.6,-,N/A,,Clear,140,2013-01-08 07:15:00
2:35 AM,-2.2,-16.6,50,30.10,10.0,SE,3.5,-,N/A,,Clear,140,2013-01-08 07:35:00
2:55 AM,-2.2,-13.0,60,30.08,10.0,Calm,Calm,-,N/A,,Clear,0,2013-01-08 07:55:00
3:15 AM,-2.2,-13.0,60,30.07,10.0,Calm,Calm,-,N/A,,Clear,0,2013-01-08 08:15:00
3:35 AM,-2.2,-14.8,55,30.07,10.0,Calm,Calm,-,N/A,,Clear,0,2013-01-08 08:35:00
3:55 AM,-2.2,-11.2,66,30.07,10.0,Calm,Calm,-,N/A,,Mostly Cloudy,0,2013-01-08 08:55:00
4:15 AM,-2.2,-9.4,71,30.08,10.0,Calm,Calm,-,N/A,,Overcast,0,2013-01-08 09:15:00
4:35 AM,-2.2,-13.0,60,30.06,10.0,SSE,4.6,-,N/A,,Overcast,150,2013-01-08 09:35:00
4:55 AM,-0.4,-9.4,66,30.04,10.0,SSE,10.4,-,N/A,,Overcast,150,2013-01-08 09:55:00
5:15 AM,1.4,-5.8,72,30.03,10.0,SSE,9.2,-,N/A,,Overcast,160,2013-01-08 10:15:00
5:35 AM,1.4,-2.2,85,30.02,10.0,SSE,3.5,-,N/A,,Overcast,150,2013-01-08 10:35:00
5:55 AM,1.4,-9999,N/A,30.02,10.0,SSE,5.8,-,N/A,,Overcast,150,2013-01-08 10:55:00
6:15 AM,3.2,-29.2,21,30.01,10.0,SSE,5.8,-,N/A,,Overcast,160,2013-01-08 11:15:00
6:35 AM,3.2,-23.8,28,30.02,10.0,SSE,8.1,-,N/A,,Overcast,150,2013-01-08 11:35:00
6:55 AM,5.0,-14.8,40,30.02,10.0,SE,6.9,-,N/A,,Overcast,130,2013-01-08 11:55:00
7:15 AM,5.0,-9.4,52,30.03,10.0,Calm,Calm,-,N/A,,Overcast,0,2013-01-08 12:15:00
7:35 AM,5.0,-7.6,56,30.03,10.0,SE,6.9,-,N/A,,Overcast,130,2013-01-08 12:35:00
7:55 AM,6.8,-2.2,67,30.03,10.0,SSE,4.6,-,N/A,,Overcast,160,2013-01-08 12:55:00
8:15 AM,6.8,5.0,92,30.03,10.0,SSE,6.9,-,N/A,,Overcast,160,2013-01-08 13:15:00
8:35 AM,6.8,-23.8,23,30.02,10.0,South,5.8,-,N/A,,Overcast,170,2013-01-08 13:35:00
8:55 AM,6.8,-9999,N/A,30.01,10.0,South,3.5,-,N/A,,Overcast,180,2013-01-08 13:55:00
9:15 AM,8.6,-9.4,44,30.02,10.0,Calm,Calm,-,N/A,,Overcast,0,2013-01-08 14:15:00
9:35 AM,10.4,-4.0,52,30.02,10.0,Calm,Calm,-,N/A,,Overcast,0,2013-01-08 14:35:00
9:55 AM,10.4,-20.2,24,30.02,10.0,SSE,3.5,-,N/A,,Overcast,160,2013-01-08 14:55:00
10:15 AM,14.0,6.8,73,30.02,10.0,South,3.5,-,N/A,,Overcast,190,2013-01-08 15:15:00
10:35 AM,19.4,12.2,74,30.01,10.0,SSW,4.6,-,N/A,,Overcast,210,2013-01-08 15:35:00
10:55 AM,24.8,14.0,64,30.01,10.0,South,9.2,-,N/A,,Overcast,180,2013-01-08 15:55:00
11:15 AM,24.8,14.0,64,30.01,10.0,South,10.4,-,N/A,,Overcast,190,2013-01-08 16:15:00
11:35 AM,26.6,15.8,64,-9999,10.0,South,6.9,-,N/A,,Overcast,180,2013-01-08 16:35:00
11:55 AM,26.6,17.6,69,-9999,10.0,South,8.1,-,N/A,,Overcast,190,2013-01-08 16:55:00
12:15 PM,28.4,17.6,64,30.00,10.0,South,10.4,-,N/A,,Overcast,190,2013-01-08 17:15:00
12:35 PM,28.4,19.4,69,29.98,10.0,South,12.7,17.3,N/A,,Overcast,190,2013-01-08 17:35:00
12:55 PM,30.2,19.4,64,-9999,10.0,SSW,10.4,17.3,N/A,,Scattered Clouds,200,2013-01-08 17:55:00
1:15 PM,30.2,19.4,64,30.00,10.0,SSW,8.1,16.1,N/A,,Scattered Clouds,200,2013-01-08 18:15:00
1:35 PM,30.2,19.4,64,30.00,10.0,SW,11.5,21.9,N/A,,Overcast,220,2013-01-08 18:35:00
1:55 PM,30.2,19.4,64,30.02,10.0,SSW,9.2,-,N/A,,Overcast,210,2013-01-08 18:55:00
2:15 PM,30.2,19.4,64,30.02,10.0,SSW,8.1,-,N/A,,Overcast,210,2013-01-08 19:15:00
2:35 PM,30.2,21.2,69,30.02,10.0,South,8.1,-,N/A,,Overcast,190,2013-01-08 19:35:00
5:35 PM,32.0,21.2,64,30.08,10.0,WSW,10.4,-,N/A,,Overcast,240,2013-01-08 22:35:00
5:55 PM,32.0,21.2,64,30.09,10.0,WSW,12.7,-,N/A,,Overcast,240,2013-01-08 22:55:00
6:15 PM,32.0,23.0,69,30.09,10.0,WSW,8.1,-,N/A,,Overcast,240,2013-01-08 23:15:00
6:35 PM,32.0,21.2,64,30.10,10.0,WSW,12.7,16.1,N/A,,Scattered Clouds,240,2013-01-08 23:35:00
6:55 PM,30.2,21.2,69,30.11,10.0,WSW,8.1,-,N/A,,Clear,250,2013-01-08 23:55:00
7:15 PM,30.2,21.2,69,30.12,10.0,West,6.9,-,N/A,,Clear,260,2013-01-09 00:15:00
7:35 PM,30.2,21.2,69,30.12,10.0,West,6.9,-,N/A,,Clear,260,2013-01-09 00:35:00
7:55 PM,30.2,23.0,75,30.14,10.0,Calm,Calm,-,N/A,,Mostly Cloudy,0,2013-01-09 00:55:00
8:15 PM,30.2,21.2,69,30.14,10.0,WSW,5.8,-,N/A,,Mostly Cloudy,250,2013-01-09 01:15:00
8:35 PM,30.2,21.2,69,30.14,10.0,WSW,8.1,-,N/A,,Partly Cloudy,250,2013-01-09 01:35:00
8:55 PM,30.2,23.0,75,30.14,10.0,WSW,10.4,16.1,N/A,,Clear,240,2013-01-09 01:55:00
9:15 PM,28.4,21.2,74,30.14,10.0,SW,6.9,-,N/A,,Clear,230,2013-01-09 02:15:00
9:35 PM,28.4,21.2,74,30.14,10.0,SW,4.6,-,N/A,,Clear,220,2013-01-09 02:35:00
9:55 PM,28.4,21.2,74,30.16,10.0,SW,6.9,-,N/A,,Clear,220,2013-01-09 02:55:00
10:15 PM,28.4,21.2,74,30.16,10.0,WSW,6.9,-,N/A,,Clear,240,2013-01-09 03:15:00
10:35 PM,28.4,21.2,74,30.17,10.0,SW,5.8,-,N/A,,Clear,220,2013-01-09 03:35:00
10:55 PM,28.4,21.2,74,30.17,10.0,WSW,6.9,-,N/A,,Clear,240,2013-01-09 03:55:00
11:15 PM,28.4,21.2,74,30.18,10.0,SW,4.6,-,N/A,,Clear,230,2013-01-09 04:15:00
11:35 PM,26.6,21.2,80,30.18,10.0,WSW,4.6,-,N/A,,Partly Cloudy,240,2013-01-09 04:35:00
11:55 PM,24.8,19.4,80,30.18,10.0,Calm,Calm,-,N/A,,Clear,0,2013-01-09 04:55:00